Wormley Airport

Jump to: basic info | weather | runways | comments

Related pages: nearby airports | nearby navaids | notams | map

Basic information (top)

Codes: 85LL
Location: lon 41.683899, lat -88.262299, elev 680 ft / 207 m msl
Status: small_airport

Weather (top)

Current conditions for Lewis University Airport 9nm (16km) ESE (rec'd 2014/09/20 09:35Z):

KLOT 200935Z AUTO 20006KT 10SM CLR 15/12 A2995

Airport forecast for Dupage Airport 13nm (25km) N (rec'd 2014/09/20 06:48Z):

TAF KDPA 200545Z 2006/2106 20013KT P6SM FEW250 
     FM201100 21011G18KT P6SM SCT150 BKN250 
     FM201400 23013G22KT P6SM SCT040 BKN120 
     FM201700 22013G18KT P6SM VCSH SCT040 BKN100 PROB30 2018/2021 5SM -TSRA SCT015 BKN040CB 
     FM210200 27010KT P6SM SCT040

Runways (top)

N/S: 2,300 x 100 ft (701 x 30 m) — grass — not lighted

Latest comments (top)

No comments yet for Wormley Airport

More... (top)

See also NOTAMs and nearby airports and navaids, or visit the Wormley Airport page at the main OurAirports website..